Time,TemperatureF,DewpointF,PressureIn,WindDirection,WindDirectionDegrees,WindSpeedMPH,WindSpeedGustMPH,Humidity,HourlyPrecipIn,Conditions,Clouds,dailyrainin,SoftwareType,DateUTC
2017-04-27 00:00:00,71.7,56.1,29.57,SSE,156,0.0,0.0,58,0.00,,,0.00,Wunderground v.1.15,2017-04-27 04:00:00,
2017-04-27 00:10:00,71.6,56.0,29.57,SSE,156,0.0,0.0,58,0.00,,,0.00,Wunderground v.1.15,2017-04-27 04:10:00,
2017-04-27 00:15:00,71.4,55.9,29.57,SSE,156,0.0,0.0,58,0.00,,,0.00,Wunderground v.1.15,2017-04-27 04:15:00,
2017-04-27 00:20:00,71.2,56.1,29.57,SSE,156,0.0,0.0,59,0.00,,,0.00,Wunderground v.1.15,2017-04-27 04:20:00,
2017-04-27 00:30:00,71.0,55.9,29.56,SSE,155,0.0,0.0,59,0.00,,,0.00,Wunderground v.1.15,2017-04-27 04:30:00,
2017-04-27 00:35:00,70.9,55.9,29.56,SSE,155,0.0,0.0,59,0.00,,,0.00,Wunderground v.1.15,2017-04-27 04:35:00,
2017-04-27 00:45:00,70.8,55.8,29.56,SSE,155,0.0,0.0,59,0.00,,,0.00,Wunderground v.1.15,2017-04-27 04:45:00,
2017-04-27 00:50:00,70.8,55.8,29.55,SSE,156,0.0,0.0,59,0.00,,,0.00,Wunderground v.1.15,2017-04-27 04:50:00,
2017-04-27 00:55:00,70.6,55.6,29.55,SSE,156,0.0,0.0,59,0.00,,,0.00,Wunderground v.1.15,2017-04-27 04:55:00,
2017-04-27 01:05:00,70.3,55.8,29.55,SSE,156,0.0,0.0,60,0.00,,,0.00,Wunderground v.1.15,2017-04-27 05:05:00,
2017-04-27 01:10:00,70.2,55.7,29.55,SSE,156,0.0,0.0,60,0.00,,,0.00,Wunderground v.1.15,2017-04-27 05:10:00,
2017-04-27 01:15:00,69.9,55.8,29.55,SSE,156,0.0,0.0,61,0.00,,,0.00,Wunderground v.1.15,2017-04-27 05:15:00,
2017-04-27 01:25:00,69.7,55.6,29.54,SSE,156,0.0,0.0,61,0.00,,,0.00,Wunderground v.1.15,2017-04-27 05:25:00,
2017-04-27 01:30:00,69.5,55.9,29.54,SSE,156,0.0,0.0,62,0.00,,,0.00,Wunderground v.1.15,2017-04-27 05:30:00,
2017-04-27 01:40:00,69.5,55.9,29.54,SSE,158,0.0,0.0,62,0.00,,,0.00,Wunderground v.1.15,2017-04-27 05:40:00,
2017-04-27 01:45:00,69.6,55.6,29.54,SSE,158,0.0,0.0,61,0.00,,,0.00,Wunderground v.1.15,2017-04-27 05:45:00,
2017-04-27 01:50:00,69.7,55.6,29.54,SSE,158,0.0,0.0,61,0.00,,,0.00,Wunderground v.1.15,2017-04-27 05:50:00,
2017-04-27 01:55:00,69.8,55.7,29.54,SSE,158,0.0,0.0,61,0.00,,,0.00,Wunderground v.1.15,2017-04-27 05:55:00,
2017-04-27 02:05:00,69.8,55.3,29.55,SSE,158,0.0,0.0,60,0.00,,,0.00,Wunderground v.1.15,2017-04-27 06:05:00,
2017-04-27 02:10:00,69.8,55.3,29.55,SSE,152,0.0,0.0,60,0.00,,,0.00,Wunderground v.1.15,2017-04-27 06:10:00,
2017-04-27 02:20:00,69.8,55.3,29.55,SSE,152,0.0,0.0,60,0.00,,,0.00,Wunderground v.1.15,2017-04-27 06:20:00,
2017-04-27 02:25:00,69.8,55.3,29.54,SE,145,0.0,0.0,60,0.00,,,0.00,Wunderground v.1.15,2017-04-27 06:25:00,
2017-04-27 02:35:00,69.7,55.2,29.55,SE,145,0.0,0.0,60,0.00,,,0.00,Wunderground v.1.15,2017-04-27 06:35:00,
2017-04-27 02:40:00,69.6,55.6,29.54,SE,145,0.0,0.0,61,0.00,,,0.00,Wunderground v.1.15,2017-04-27 06:40:00,
2017-04-27 02:45:00,69.5,55.5,29.54,SE,145,0.0,0.0,61,0.00,,,0.00,Wunderground v.1.15,2017-04-27 06:45:00,